Regional Weather Roundup
Issued by NWS

Home | Current Version | Previous Version | Graphics & Text | Print | Product List | Glossary Off
Versions: 1 2 3 4 5 6 7 8 9 10 11 12 13 14 15 16 17 18 19 20 21 22 23 24 25 26 27 28 29 30 31 32 33 34 35 36 37 38 39 40 41 42 43 44 45 46 47 48 49 50

000
ASUS43 KTOP 020159
RWRKS

WEATHER ROUNDUP FOR KANSAS
NATIONAL WEATHER SERVICE GOODLAND KS
900 PM CDT SUN MAY 01 2016

NOTE:  "FAIR" INDICATES FEW OR NO CLOUDS BELOW 12,000 FEET WITH NO
SIGNIFICANT WEATHER AND/OR OBSTRUCTIONS TO VISIBILITY.

KSZ001>006-013>018-027>032-041>047-020300-
NORTHWEST KANSAS

CITY           SKY/WX    TMP DP  RH WIND       PRES   REMARKS
GOODLAND       CLOUDY    40  32  73 N9        30.23R
HAYS           CLOUDY    46  34  61 N10       30.19S
HILL CITY      CLOUDY    47  40  76 E3        30.21R
RUSSELL        CLOUDY    46  41  82 N9        30.18R
$$

KSZ061>065-074>080-084>089-020300-
SOUTHWEST KANSAS

CITY           SKY/WX    TMP DP  RH WIND       PRES   REMARKS
DODGE CITY     CLOUDY    44  38  79 N9        30.20R
ELKHART          N/A     42  39  89 NW5         N/A
GARDEN CITY    CLOUDY    44  39  82 N6        30.20R
GREAT BEND     CLOUDY    46  37  71 N10       30.18S
LIBERAL        CLOUDY    45  37  76 W3        30.23R
$$

KSZ066>073-081>083-090>101-020300-
SOUTHEAST KANSAS

CITY           SKY/WX    TMP DP  RH WIND       PRES   REMARKS
CHANUTE        CLOUDY    57  47  69 N9        30.08R
COFFEYVILLE    CLOUDY    57  48  72 W7        30.09R
HUTCHINSON     CLOUDY    49  41  74 N9        30.15R
MEDICINE LODGE   N/A     50  40  68 N10       30.17R
NEWTON         CLOUDY    48  37  66 N12       30.15R
PARSONS        MOCLDY    57  50  77 NW6       30.09R
WICHITA INTL   CLOUDY    52  41  66 N10       30.14R
WICHITA JABRA  CLOUDY    50  43  77 N8        30.14R
WINFIELD       CLOUDY    52  45  77 N8        30.15R
$$

KSZ007>012-019>026-033>040-048>060-102>105-020300-
NORTHEAST KANSAS

CITY           SKY/WX    TMP DP  RH WIND       PRES   REMARKS
CONCORDIA      CLOUDY    47  40  76 N6        30.16S
EMPORIA        CLOUDY    50  43  77 N9        30.11R
LAWRENCE       CLOUDY    51  45  79 N7        30.11R
MANHATTAN      CLOUDY    50  41  71 N6        30.14R
OLATHE IND     CLOUDY    51  45  79 N15       30.09S
OLATHE EXE     CLOUDY    51  44  77 N12       30.08R
SALINA         CLOUDY    49  42  77 N13       30.17R
TOPEKA BILLARD CLOUDY    50  42  74 N12       30.12R
TOPEKA FORBES  CLOUDY    52  43  71 N15       30.10S
$$



USA.gov is the U.S. government's official web portal to all federal, state and local government web resources and services.